Back to catalog

STARLINK-2150

AliveCommunicationsVLEO
NORAD 47739·PAYLOAD·🇺🇸 United States

Launched Mar 4, 2021 from Cape Canaveral Space Force Station

Loading…

Next Passes (next 24 hours)

TLE

FreshSource: CelesTrak SupGP

Epoch: Sep 15, 2026, 01:40 UTC

1 47739C 21017T   26258.06993056 -.00027687  00000+0 -89023-3 0  2586
2 47739  53.1583  57.8768 0001127  94.4120 256.3836 15.31720413    10

Track STARLINK-2150 in real time with AllMySat

Download on the App Store